Torna al catalogo

COSMOS 1732

AttivoMilitareLEO
NORAD 16593·PAYLOAD·🇷🇺 Russia

Lanciato Feb 11, 1986 da Plesetsk Cosmodrome

Loading…

Prossimi Passaggi (prossime 24 ore)

TLE

AggiornatoSource: Space-Track

Epoca: Sep 14, 2026, 12:31 UTC

1 16593U 86015A   26257.52220704 -.00000006  00000-0  81418-4 0  9991
2 16593  73.6116 185.6391 0027298 297.3535  62.4731 12.41027946838902

Traccia COSMOS 1732 in tempo reale con AllMySat

Download on the App Store